Terminal Aerodrome Forecast
Issued by NWS Wakefield, VA

Home | Current Version | Previous Version | Text Only | Print | Product List | Glossary On
Versions: 1 2 3 4 5 6 7 8 9 10 11 12 13
000
FTUS41 KAKQ 281100
TAFRIC
TAF
KRIC 281134Z 2812/2912 35008KT P6SM BKN250
     FM281600 01006KT P6SM SCT040
     FM290000 05004KT P6SM SCT250=

USA.gov is the U.S. government's official web portal to all federal, state and local government web resources and services.